This demonstration page uses our WeatherBlox Daily Observations layout. Learn more.

Left ArrowRight Arrow

53.62937, 11.41316

Hourly Observations for April 28, 2015

Temp ( °F °C ) Dew Point ( °F °C ) Humidity (%) Winds ( mph kmh ) Pressure ( in mb ) Visibility ( mi km ) Precip ( " mm )
5:50 am 05:50 Mostly Sunny 32 0 30 -1 93 93 W 3 6 29.83 1010 7 11 N/A
6:20 am 06:20 Mostly Sunny 34 1 32 0 93 93 SW 2 4 29.83 1010 7 11 N/A
6:50 am 06:50 Mostly Sunny 34 1 34 1 100 100 SW 2 4 29.83 1010 7 11 N/A
7:20 am 07:20 Mostly Sunny 36 2 34 1 93 93 VRB 2 4 29.83 1010 7 11 N/A
7:50 am 07:50 Mostly Sunny 39 4 36 2 87 87 WSW 3 6 29.85 1011 7 11 N/A
8:20 am 08:20 Mostly Sunny 43 6 37 3 81 81 W 3 6 29.85 1011 7 11 N/A
8:50 am 08:50 Mostly Sunny 45 7 36 2 71 71 NNW 7 11 29.85 1011 7 11 N/A
9:20 am 09:20 Mostly Sunny 45 7 36 2 71 71 NW 6 9 29.85 1011 7 11 N/A
9:50 am 09:50 Partly Cloudy 46 8 37 3 71 71 NW 5 7 29.85 1011 30 48 N/A
10:20 am 10:20 Partly Cloudy 46 8 36 2 66 66 NNW 6 9 29.85 1011 30 48 N/A
10:50 am 10:50 Partly Cloudy 46 8 34 1 62 62 W 8 13 29.88 1012 30 48 N/A
11:20 am 11:20 Partly Cloudy 48 9 32 0 54 54 W 8 13 29.88 1012 30 48 N/A
11:50 am 11:50 Partly Cloudy 50 10 32 0 50 50 W 7 11 29.88 1012 30 48 N/A
12:20 pm 12:20 Mostly Cloudy 50 10 34 1 54 54 W 9 15 29.88 1012 30 48 N/A
12:50 pm 12:50 Mostly Cloudy 48 9 32 0 54 54 W 8 13 29.88 1012 30 48 N/A
1:20 pm 13:20 Mostly Cloudy 50 10 34 1 54 54 W 8 13 29.91 1013 30 48 N/A
1:50 pm 13:50 Mostly Cloudy 50 10 28 -2 43 43 W 9 15 29.91 1013 30 48 N/A
2:20 pm 14:20 Mostly Sunny 50 10 30 -1 47 47 W 9 15 29.91 1013 7 11 N/A
2:50 pm 14:50 Mostly Sunny 50 10 32 0 50 50 NW 8 13 29.91 1013 7 11 N/A
3:20 pm 15:20 Mostly Sunny 50 10 30 -1 47 47 NW 5 7 29.91 1013 7 11 N/A
3:50 pm 15:50 Mostly Sunny 52 11 34 1 50 50 NW 7 11 29.94 1014 7 11 N/A
4:20 pm 16:20 Mostly Sunny 50 10 32 0 50 50 NW 7 11 29.94 1014 7 11 N/A
4:50 pm 16:50 Mostly Sunny 54 12 25 -4 33 33 W 9 15 29.91 1013 7 11 N/A
5:20 pm 17:20 Mostly Sunny 52 11 27 -3 38 38 W 12 19 29.94 1014 7 11 N/A
5:50 pm 17:50 Mostly Sunny 54 12 28 -2 38 38 W 8 13 29.94 1014 7 11 N/A
6:20 pm 18:20 Mostly Sunny 52 11 28 -2 41 41 W 12 19 29.94 1014 7 11 N/A
6:50 pm 18:50 Mostly Sunny 52 11 28 -2 41 41 WSW 9 15 29.94 1014 7 11 N/A

Powered by AerisWeather